DW7584 Weather Reports


Display with metric or nautical units.
time (UTC)temp
F
wind
direction
speed
MPH
gust
MPH
rain 1hr
in
rain 24hr
in
rain mn
in
humidity
%
barometer
mb
20260506224517 49 248 12.0 16.0 0.00 0.00 0.00 47 1013.5
20260506223516 49 248 11.0 14.0 0.00 0.00 0.00 48 1013.5
20260506222517 50 248 8.0 11.0 0.00 0.00 0.00 47 1013.6
20260506221517 50 248 10.0 16.0 0.00 0.00 0.00 44 1013.5
20260506220517 51 248 12.0 16.0 0.00 0.00 0.00 42 1013.5
20260506215516 51 270 13.0 16.0 0.00 0.00 0.00 46 1013.5
20260506214517 50 248 10.0 16.0 0.00 0.00 0.00 48 1013.6
20260506213517 50 248 13.0 17.0 0.00 0.00 0.00 45 1013.4
20260506212517 50 248 8.0 14.0 0.00 0.00 0.00 48 1013.4
20260506211516 50 270 10.0 15.0 0.00 0.00 0.00 46 1013.5
20260506210516 50 248 10.0 14.0 0.00 0.00 0.00 47 1013.4
20260506205517 49 270 7.0 11.0 0.00 0.00 0.00 52 1013.6
20260506204516 49 270 7.0 12.0 0.00 0.00 0.00 48 1013.5
20260506203516 49 248 7.0 10.0 0.00 0.00 0.00 46 1013.6
20260506202538 49 270 7.0 12.0 0.00 0.00 0.00 46 1013.6
20260506201518 49 270 8.0 12.0 0.00 0.00 0.00 51 1013.8
20260506200517 49 270 7.0 11.0 0.00 0.00 0.00 49 1013.9
20260506195517 50 248 9.0 12.0 0.00 0.00 0.00 50 1014.0
20260506194516 50 225 9.0 13.0 0.00 0.00 0.00 50 1013.9
20260506193537 49 248 8.0 11.0 0.00 0.00 0.00 52 1013.9
20260506192516 49 248 9.0 13.0 0.00 0.00 0.00 51 1013.9
20260506191516 49 248 8.0 11.0 0.00 0.00 0.00 52 1013.9
20260506190516 49 270 9.0 12.0 0.00 0.00 0.00 51 1013.9
20260506185517 49 248 7.0 14.0 0.00 0.00 0.00 49 1013.9
20260506184516 49 248 11.0 14.0 0.00 0.00 0.00 49 1013.9
20260506183516 49 270 7.0 10.0 0.00 0.00 0.00 50 1013.8
20260506182516 49 248 6.0 10.0 0.00 0.00 0.00 50 1014.0
20260506181516 48 225 8.0 13.0 0.00 0.00 0.00 52 1014.0
20260506180516 48 248 7.0 10.0 0.00 0.00 0.00 50 1014.1
20260506175516 48 225 8.0 12.0 0.00 0.00 0.00 52 1014.2
20260506174516 49 248 8.0 12.0 0.00 0.00 0.00 50 1014.2
20260506173516 48 248 5.0 10.0 0.00 0.00 0.00 51 1014.3
20260506172518 47 248 5.0 8.0 0.00 0.00 0.00 54 1014.5
20260506171516 47 270 5.0 8.0 0.00 0.00 0.00 55 1014.5
20260506170537 46 270 5.0 10.0 0.00 0.00 0.00 53 1014.4
20260506165517 46 270 5.0 8.0 0.00 0.00 0.00 54 1014.5
20260506164536 46 293 2.0 4.0 0.00 0.00 0.00 55 1014.6
20260506163516 46 270 3.0 6.0 0.00 0.00 0.00 55 1014.5
20260506162516 46 270 3.0 7.0 0.00 0.00 0.00 53 1014.6
20260506161516 47 248 2.0 4.0 0.00 0.00 0.00 53 1014.8
20260506160536 46 270 2.0 5.0 0.00 0.00 0.00 55 1014.8
20260506155536 47 0.0 2.0 0.00 0.00 0.00 53 1014.9
20260506154517 46 0.0 2.0 0.00 0.00 0.00 55 1015.0
20260506153517 46 270 2.0 4.0 0.00 0.00 0.00 54 1014.9
20260506152517 47 315 3.0 6.0 0.00 0.00 0.00 58 1015.0
20260506151516 47 248 3.0 4.0 0.00 0.00 0.00 57 1014.9
20260506150516 47 293 2.0 7.0 0.00 0.00 0.00 55 1014.9
20260506145517 46 293 3.0 5.0 0.00 0.00 0.00 55 1014.9
20260506144516 45 293 2.0 5.0 0.00 0.00 0.00 56 1014.8
20260506143516 45 225 1.0 3.0 0.00 0.00 0.00 62 1014.7
20260506142516 44 270 2.0 4.0 0.00 0.00 0.00 61 1014.7
20260506141536 44 293 3.0 4.0 0.00 0.00 0.00 60 1014.7
20260506140516 44 315 3.0 6.0 0.00 0.00 0.00 59 1014.8
20260506135517 44 23 2.0 4.0 0.00 0.00 0.00 63 1014.7
20260506134516 43 90 1.0 4.0 0.00 0.00 0.00 61 1014.6
20260506133516 43 90 2.0 5.0 0.00 0.00 0.00 63 1014.5
20260506132515 43 90 3.0 6.0 0.00 0.00 0.00 63 1014.6
20260506131516 41 90 3.0 5.0 0.00 0.00 0.00 69 1014.5
20260506130536 40 90 3.0 5.0 0.00 0.00 0.00 70 1014.4
20260506125515 39 90 2.0 5.0 0.00 0.00 0.00 73 1014.6
20260506124521 39 90 1.0 3.0 0.00 0.00 0.00 74 1014.3
20260506123519 38 90 2.0 4.0 0.00 0.00 0.00 75 1014.2
20260506122516 38 90 1.0 3.0 0.00 0.00 0.00 76 1014.1
20260506121516 39 0.0 1.0 0.00 0.00 0.00 80 1014.1
20260506120516 36 0.0 0.0 0.00 0.00 0.00 90 1013.9
20260506115536 34 0.0 1.0 0.00 0.00 0.00 90 1013.8
20260506114516 33 0.0 0.0 0.00 0.00 0.00 90 1013.7
20260506113515 33 0.0 1.0 0.00 0.00 0.00 90 1013.7
20260506112516 32 0.0 1.0 0.00 0.00 0.00 89 1013.6
20260506111516 32 315 2.0 3.0 0.00 0.00 0.00 88 1013.5
20260506110536 32 0.0 2.0 0.00 0.00 0.00 85 1013.3
20260506105516 33 0.0 0.0 0.00 0.00 0.00 86 1013.0
20260506104515 32 0.0 0.0 0.00 0.00 0.00 87 1012.9
20260506103515 31 0.0 1.0 0.00 0.00 0.00 86 1013.1
20260506102516 32 0.0 1.0 0.00 0.00 0.00 86 1012.8
20260506101516 32 0.0 0.0 0.00 0.00 0.00 85 1012.7
20260506100516 32 0.0 0.0 0.00 0.00 0.00 83 1012.8
20260506095535 33 0.0 1.0 0.00 0.00 0.00 82 1012.8
20260506094618 33 0.0 0.0 0.00 0.00 0.00 82 1012.8
20260506093536 33 0.0 0.0 0.00 0.00 0.00 82 1012.9
20260506092518 34 0.0 1.0 0.00 0.00 0.00 82 1013.0
20260506091516 34 0.0 1.0 0.00 0.00 0.00 78 1013.3
20260506090517 34 0.0 1.0 0.00 0.00 0.00 78 1013.1
20260506085517 35 45 1.0 2.0 0.00 0.00 0.00 77 1013.1
20260506084517 35 0.0 1.0 0.00 0.00 0.00 75 1013.2
20260506083539 35 23 1.0 3.0 0.00 0.00 0.00 75 1013.1
20260506082518 35 23 2.0 3.0 0.00 0.00 0.00 76 1012.9
20260506081538 35 0.0 1.0 0.00 0.00 0.00 75 1012.9
20260506080518 35 0.0 1.0 0.00 0.00 0.00 73 1012.8
20260506073517 37 23 2.0 5.0 0.00 0.00 0.00 71 1013.0
20260506072517 37 23 2.0 5.0 0.00 0.00 0.00 73 1012.8
20260506071517 37 23 3.0 5.0 0.00 0.00 0.00 72 1012.8
20260506070518 37 23 2.0 6.0 0.00 0.00 0.00 74 1012.7
20260506062517 36 0.0 1.0 0.00 0.00 0.00 80 1012.4
20260506061517 36 0.0 0.0 0.00 0.00 0.00 80 1012.5
20260506060517 36 0.0 0.0 0.00 0.00 0.00 77 1012.4
20260506050517 35 0.0 0.0 0.00 0.00 0.00 76 1012.0
20260506044517 35 0.0 0.0 0.00 0.00 0.00 73 1012.0
20260506043517 35 0.0 1.0 0.00 0.00 0.00 74 1012.1
20260506042518 36 0.0 1.0 0.00 0.00 0.00 73 1012.1
20260506041517 36 0.0 0.0 0.00 0.00 0.00 73 1012.0
20260506040517 36 0.0 1.0 0.00 0.00 0.00 73 1012.0
20260506035537 36 0.0 0.0 0.00 0.00 0.00 68 1012.1
20260506034517 37 0.0 0.0 0.00 0.00 0.00 66 1012.0
20260506033517 39 0.0 0.0 0.00 0.00 0.00 64 1012.0
20260506032517 40 0.0 0.0 0.00 0.00 0.00 62 1012.1
20260506031517 41 293 1.0 2.0 0.00 0.00 0.00 58 1011.9
20260506030517 42 270 1.0 1.0 0.00 0.00 0.00 54 1011.9
20260506025517 42 270 1.0 2.0 0.00 0.00 0.00 54 1011.9
20260506024520 42 270 1.0 1.0 0.00 0.00 0.00 55 1011.9
20260506023537 42 270 1.0 2.0 0.00 0.00 0.00 55 1011.8
20260506022517 42 270 1.0 2.0 0.00 0.00 0.00 55 1011.6
20260506021517 42 270 1.0 1.0 0.00 0.00 0.00 57 1011.4
20260506020517 41 270 2.0 2.0 0.00 0.00 0.00 59 1011.5
20260506015537 41 270 3.0 4.0 0.00 0.00 0.00 59 1011.4
20260506014517 42 270 3.0 5.0 0.00 0.00 0.00 57 1011.1
20260506013517 43 270 5.0 7.0 0.00 0.00 0.00 55 1011.0
20260506012517 43 270 5.0 8.0 0.00 0.00 0.00 55 1010.8
20260506011518 44 293 4.0 6.0 0.00 0.00 0.00 56 1010.7
20260506010517 44 270 5.0 8.0 0.00 0.00 0.00 54 1010.9
20260506005517 45 270 7.0 9.0 0.00 0.00 0.00 50 1010.8
20260506004517 46 270 8.0 14.0 0.00 0.00 0.00 50 1010.7
20260506003517 46 270 10.0 14.0 0.00 0.00 0.00 50 1010.6
20260506002517 46 270 11.0 16.0 0.00 0.00 0.00 47 1010.6
20260506001537 46 270 9.0 13.0 0.00 0.00 0.00 47 1010.5
20260506000557 46 270 9.0 11.0 0.00 0.00 0.00 48 1010.4
20260505235517 47 270 11.0 14.0 0.00 0.00 0.00 48 1010.4
20260505234558 47 270 14.0 18.0 0.00 0.00 0.00 43 1010.1
20260505233517 48 270 14.0 19.0 0.00 0.00 0.00 44 1010.0
20260505232517 48 270 13.0 18.0 0.00 0.00 0.00 43 1009.9
20260505231516 48 270 11.0 16.0 0.00 0.00 0.00 45 1009.9
20260505230517 49 270 14.0 19.0 0.00 0.00 0.00 43 1009.8
20260505225517 49 293 14.0 17.0 0.00 0.00 0.00 45 1009.6